Résultats de la compétition "Régionale Lac Pavin- Auvergne" du 24-04-2010 organisée par la ligue AU
     
  Télécharger le fichier CSV.  
     
     

 Circuit "E"

Licence Nom Prénom Temps CN
précédent
Score sur
la course
Différence
10384DELENNEAdrien0:17:0348114503-308
18120CHABANCEThomas0:17:1240914464+373
4879RAUTURIERQuentin0:17:2847014396-305
11355BASSETMarian0:17:2844164396-20
14681ROGERAymeric0:19:4039803904-76
14394MARTINEZPierre0:20:1439803795-185
17418LAFARGEEmeline0:20:4132283712+484
17925DROINSolene0:20:4524793700+1221
23284CHANEACValentin0:21:14N/A3616N/A
19689GIRARDLucille0:21:5627413501+760
12358RINGOTPaul0:22:0535773477-100
16982SERRANDArthur0:22:0930303467+437
10369SIAUDUlysse0:22:1834493443-6
12608PRATGuilhem0:22:5625913348+757
10396HABERKORNChloé0:24:2038213155-666
22925GROSSIKurtys0:24:28N/A3138N/A
10184BODYMathilde0:24:4128913111+220
19856RAMBLIEREThéo0:24:5325633086+523
14950SOGNOMartin0:24:5434203084-336
23352LAURENTEmilien0:25:00N/A3071N/A
16393FOLLoreline0:25:3429433003+60
11904DELENNEWilliam0:26:0641652942-1223
15412ASTRADEBaptiste0:26:2927112899+188
11559ROULLEAUXJulie0:26:3439192890-1029
9402BORNARDJulie0:26:5219892858+869
20926BAZINThéo0:27:2916432794+1151
16547LAVILLEJulien0:28:3834072682-725
20273LOPEZGaëtan0:28:4122902677+387
19276PETER-JANLucile0:28:5532732655-618
18213LARGILLÈRENicolas0:29:0829852636-349
16648JANANDPierre-Louis0:29:2029212618-303
20298LE BIHANJonathan0:29:3820972591+494
20271LE CALVEZVincent0:29:4721502578+428
18257MAGNONRobin0:30:0628792551-328
23286JOURDANCindy0:30:07N/A2550N/A
19484DE MARCHIAnthony0:30:2426642526-138
16137ELIASPauline0:30:3723432508+165
11221FENEUILThibauld0:31:0833502466-884
10312GIROUXLuc0:31:1502457N/A
12688POUCHATJonathan0:31:2216122448+836
18967VOLPATOAugustin0:31:2829182440-478
12403FALGABeatrice0:31:5119442411+467
20099MAURINEdouard0:32:0322302396+166
19401VIVIER-BOUDRIERThéo0:32:0525882393-195
22433MALAKNathan0:32:0917522388+636
23285JOURDANAurélien0:32:27N/A2366N/A
19767LOPEZEtienne0:32:3123732361-12
20127MADECThéo0:32:3934212352-1069
11842DERIAZSamson0:33:1828282306-522
22251FAVIERMaxence0:33:3614002285+885
16555PICAZOMarie0:34:0029272258-669
22250PARENTMathilde0:34:1913342237+903
22451RIVOLLIERIsaline0:35:1702176N/A
19486BISSIERECamille0:35:1829742175-799
10758BESTELSandra0:35:2526242168-456
11135JOUBERTFloryan0:36:1820932115+22
12404FOUILLADEPaul0:37:2022682057-211
13926GODEFROYSimon0:39:4830401929-1111
22512GRESSIERTheo0:40:3217451894+149
18136MIOLLANYAlex0:41:48N/A1837N/A
9143PORTELouise0:42:2218941812-82
22860MASSINMargot0:43:27N/A1767N/A
19894DEFIXJulia0:43:3621351761-374
23283CRESPINAlexis0:44:48N/A1714N/A
10091LUTHRINGERColine0:45:2521021691-411
20386DUTERAGEMarie0:46:1413381661+323
23287PHILIPPOTNelly0:47:29N/A1617N/A
20385DUTERAGEAurélie0:47:3214641615+151
23281HABAUZITQuentin0:48:40N/A1578N/A
20292DEVILLARDAdrien0:48:5920731568-505
19399MARLIACQuentin0:50:0516981533-165
22447LALOUXClément0:52:0612931474+181
17606REBOURSXavier0:53:2319371438-499
19782MEYMilena0:57:1613271341+14
12999MOUTAULTAnais0:58:3911111309+198
22804CLAVELMatéo1:13:59N/A1038N/A
23437GRESSIERFrancis1:15:39N/A1015N/A
23282BONNAVEIRAFabien1:29:30N/A858N/A
12589KERN-GILLARDNicolasN/AN/A0N/A
23441ROINEAUElieN/AN/A0N/A

  Indice de confiance du circuit (moyenne des différences entre CN et score sur la course des 3 à 10 premiers) : 87






 Retour